Location: Stara Lesna
(49.1528°N, 20.2911°E)
Time: 22:45:53
(UTC+02:00)

SeaSat 1 - Pass Details

Date: 21 September 2019
Orbit: 745 x 747 km, 108.0° (Epoch: 18 October)

Event Time Altitude Azimuth Distance (km) Brightness Sun altitude
Rises 05:17:54 0° 28° (NNE) 3,204 6.4 -11.4°
Reaches altitude 10° 05:20:11 10° 26° (NNE) 2,276 5.5 -11.0°
Maximum altitude 05:25:07 73° 303° (WNW) 787 2.4 -10.2°
Drops below altitude 10° 05:30:01 10° 220° (SW) 2,261 4.5 -9.4°
Enters shadow 05:31:18 - 218° (SW) 2,781 4.9 -9.2°
